Location: Austin
(30.3000°N, 97.7500°W)
Time: 00:11:42
(UTC-05:00)

CZ-4C R/B - Pass Details

Date: 11 June 2024
Orbit: 446 x 580 km, 98.0° (Epoch: 21 June)

Event Time Altitude Azimuth Distance (km) Brightness Sun altitude
Rises 21:21:01 0° 25° (NNE) 2,797 7.0 -9.7°
Reaches altitude 10° 21:23:24 10° 37° (NE) 1,898 6.0 -10.1°
Maximum altitude 21:27:00 29° 98° (E) 1,078 4.3 -10.7°
Enters shadow 21:30:09 12° 155° (SSE) 1,732 5.3 -11.3°
